Location: Drusweiler
(49.1054°N, 8.0353°E)
Time: 17:56:49
(UTC+00:00)

Daily predictions for brighter satellites

Satellite Brightness Start Highest point End
(mag) Time Altitude Azimuth Time Altitude Azimuth Time Altitude Azimuth
S3M 4.1 20:05:32 10° S 20:11:40 64° E 20:17:45 10° NNE
SL-16 R/B 4.0 20:09:00 10° WSW 20:14:17 39° NW 20:19:37 10° NNE
USA 245 3.9 20:09:22 10° SSE 20:14:25 62° ENE 20:18:32 10° N
Cosmos 1626 4.1 20:11:35 10° SW 20:14:54 32° WNW 20:18:14 10° N
MetOp-B 4.2 20:11:46 10° SSE 20:17:07 90° ENE 20:22:31 10° NNW
SPOT 5 3.2 20:13:37 10° SE 20:17:54 44° ENE 20:22:03 10° N
Meteor 2-5 Rocket 4.3 20:13:37 10° SSE 20:18:39 38° E 20:23:45 10° NNE
SPOT 1/Viking Rocket 4.0 20:16:35 10° S 20:21:40 62° W 20:26:48 10° NNW
Cosmos 1271 Rocket 4.3 20:19:17 10° NNE 20:22:31 23° ENE 20:25:44 10° ESE
Cosmos 1300 2.9 20:20:28 10° NNW 20:24:15 74° W 20:28:02 10° S
Cosmos 1025 Rocket 3.7 20:21:26 10° SSE 20:25:19 36° E 20:29:15 10° NNE
ERS-1 Rocket 3.3 20:25:07 10° SE 20:30:00 54° ENE 20:34:55 10° N
Cosmos 1140 Rocket 3.5 20:27:11 10° NNW 20:32:26 90° SW 20:37:36 10° SSE
Cosmos 1953 3.7 20:31:20 10° NNW 20:34:59 36° W 20:38:37 10° SSW
Cosmos 1943 3.4 20:32:02 10° SSW 20:37:43 78° WNW 20:43:24 10° NNE
Cosmos 1745 Rocket 4.3 20:32:57 10° NNW 20:39:02 68° W 20:45:07 10° S
CZ-2C R/B 4.3 20:36:46 10° NNE 20:41:08 39° E 20:45:24 10° SSE
Cosmos 1603 3.9 20:35:59 10° SSW 20:41:41 81° WNW 20:47:28 10° NNE
Lacrosse 5 2.6 20:37:25 10° NW 20:42:25 51° NNE 20:47:24 10° E
Cosmos 1975 Rocket 3.1 20:41:31 10° S 20:45:58 71° E 20:50:24 10° NNE
H-2A R/B 3.9 20:42:58 10° N 20:46:54 35° WNW 20:50:54 10° SW
Helios 1A Rocket 2.9 20:43:52 10° SSE 20:47:55 83° ENE 20:52:02 10° NNW
Ariane Rocket 4.1 20:44:31 10° S 20:49:20 42° W 20:54:11 10° NNW
Cosmos 1954 Rocket 4.3 20:44:17 10° NNW 20:49:31 57° ENE 20:54:15 12° SE
CARTOSAT-1 4.3 20:45:44 10° S 20:49:55 50° W 20:54:08 10° NNW
Resurs 01 Rocket 3.6 20:50:19 10° SSW 20:53:57 25° W 20:57:37 10° NW
Lacrosse 4 Rocket 2.9 20:53:56 10° WSW 20:57:50 40° NW 21:01:43 10° NNE
Tiangong 2.6 20:56:47 10° SW 20:59:07 19° S 21:00:12 16° SE
Cosmos 2228 4.5 20:57:52 10° NNE 21:01:21 24° ENE 21:04:23 12° ESE
Cosmos 1544 Rocket 3.6 20:59:40 10° N 21:04:00 71° ENE 21:07:38 14° SSE
FALCON 9 DEB 2.9 21:03:23 10° WSW 21:06:38 73° SSE 21:09:54 10° ENE
Terra 1.8 21:02:52 13° SSE 21:07:12 88° ENE 21:12:00 10° NNW
SL-8 R/B 3.6 21:03:46 10° WSW 21:08:35 79° S 21:13:26 10° E
USA 267 3.2 21:02:47 10° ENE 21:09:17 64° SE 21:15:47 10° SW
Cosmos 1980 Rocket 4.4 21:06:34 10° N 21:10:26 18° NE 21:14:16 10° E
Cosmos 1455 2.1 21:07:59 10° N 21:11:47 77° ENE 21:14:42 16° SSE
Meteor 1-24 Rocket 3.6 21:07:17 10° S 21:12:35 88° E 21:18:00 10° NNE
Cosmos 2369 Rocket 4.5 21:09:21 10° WNW 21:12:50 17° W 21:16:18 10° SW
Cosmos 2315 Rocket 4.2 21:07:25 10° SSW 21:13:47 79° W 21:20:08 10° N
Cosmos 1697 Rocket 4.2 21:10:38 10° NNW 21:15:29 28° NE 21:20:18 10° ESE
NOSS 2-1 (C) 4.1 21:12:45 10° NW 21:17:02 68° NE 21:22:11 14° SE
Cosmos 1371 Rocket 4.0 21:13:21 10° SSW 21:18:34 84° ESE 21:23:53 10° NNE
RESURS DK-1 4.1 21:16:09 10° N 21:19:34 24° NE 21:22:59 10° ESE
Spot 2 Rocket 4.1 21:15:32 10° S 21:20:28 51° W 21:25:28 10° NNW
CZ-4B R/B 4.4 21:25:24 10° NW 21:26:16 11° WNW 21:27:08 10° W
ARIANE 5 R/B 2.7 21:23:37 16° S 21:27:11 78° WSW 21:31:41 10° NNW
NOSS 2-1 (D) 4.0 21:23:03 10° NW 21:27:25 79° NE 21:32:17 16° SE
Lacrosse 5 rocket 1.2 21:25:09 10° WNW 21:29:01 77° SW 21:31:47 20° SE
ASTEX 1 4.4 21:24:37 10° NNE 21:29:07 32° E 21:32:06 18° SE
Cosmos 2084 3.5 21:26:52 10° SSW 21:30:30 44° SE 21:34:12 10° NE
Cosmos 2074 Rocket 4.0 21:30:50 10° N 21:37:10 83° E 21:42:02 18° SSE
ATLAS 2AS CENTAUR R/B 2.7 21:32:36 10° NW 21:39:47 79° SW 21:44:51 19° SSE
Cosmos 1624 Rocket 4.2 21:35:10 10° SSW 21:40:24 72° WNW 21:45:38 10° NNE
Cosmos 1656 3.7 21:37:31 10° NNW 21:42:59 73° ENE 21:46:54 20° SE
GP-B 4.2 21:39:26 10° NNE 21:43:22 30° E 21:45:39 19° SE
USA 234 3.3 21:38:52 15° SE 21:44:28 76° SW 21:51:04 10° WNW
Cosmos 1833 Rocket 3.7 21:44:38 20° SE 21:47:17 28° ESE 21:52:01 10° NE
Cosmos 2154 Rocket 4.0 21:50:13 10° N 21:56:31 82° E 22:00:52 21° SSE
Cosmos 1271 Rocket 4.1 21:54:52 10° NNW 21:58:30 34° W 22:01:16 15° SSW
Nadezhda 1 Rocket 4.0 21:54:38 19° S 21:59:03 68° E 22:05:06 10° NNE
Cosmos 2056 Rocket 4.4 21:54:57 10° SW 22:00:11 52° WNW 22:05:31 10° NNE
Cosmos 2082 Rocket 3.9 21:59:43 14° ESE 22:01:35 16° E 22:05:00 10° ENE
Cosmos 1741 Rocket 4.0 21:58:22 10° NNW 22:03:43 81° ENE 22:07:02 24° SSE
Cosmos 1610 Rocket 4.5 21:58:13 10° N 22:04:26 84° E 22:08:40 22° SSE
Cosmos 2344 4.4 21:59:58 10° NW 22:08:34 73° NE 22:20:30 10° SE
Cosmos 1536 Rocket 4.4 22:13:47 14° SSW 22:17:18 47° WNW 22:21:31 10° N
Cosmos 1607 4.3 22:11:55 10° SW 22:18:07 66° NW 22:24:18 10° NE
Cosmos 968 Rocket 4.3 22:20:00 10° NNW 22:24:57 44° ENE 22:28:30 18° SE
Cosmos 1606 Rocket 3.5 22:20:59 10° NNW 22:25:20 77° W 22:27:26 30° S
Lacrosse 5 2.1 22:20:31 10° WNW 22:25:29 52° SW 22:27:56 28° SSE
H-2A R/B 4.2 22:21:48 10° NNE 22:25:46 39° E 22:27:16 29° SE
COSMOS 2406 4.0 22:25:00 24° SSE 22:27:31 35° ESE 22:32:42 10° NE
Cosmos 724 4.3 22:25:38 10° SW 22:31:26 80° NW 22:37:17 10° NE
Meteor 1-11 4.5 22:30:33 26° SSE 22:33:35 55° E 22:39:02 10° NNE
SL-8 Rocket 4.2 22:29:27 10° N 22:35:43 66° ENE 22:39:30 25° SSE
TSX-5 4.3 22:33:04 18° SW 22:36:18 83° WNW 22:41:58 10° NNE
Cosmos 1850 Rocket 4.4 22:31:16 10° NNW 22:36:21 54° WSW 22:39:02 26° S
Cosmos 2369 4.1 22:31:32 10° NNW 22:37:13 58° ENE 22:41:14 19° SE
SJ 16-02 4.2 22:37:00 10° NNE 22:38:16 11° NE 22:39:33 10° ENE
Cosmos 2228 4.1 22:35:04 10° NNW 22:38:58 36° W 22:41:10 21° SW
Cosmos 1328 3.9 22:37:11 30° SSW 22:39:07 77° W 22:43:10 10° N
Cosmos 2218 Rocket 4.3 22:32:58 10° N 22:39:18 61° ENE 22:43:17 24° SSE
Meteor 1-21 Rocket 4.4 22:35:48 19° SSW 22:39:51 67° WNW 22:45:29 10° N
Cosmos 2341 Rocket 4.0 22:34:52 10° N 22:41:16 84° E 22:45:04 26° SSE
SL-16 R/B 4.3 22:37:46 10° N 22:42:10 22° NE 22:46:35 10° E
FALCON 9 DEB 4.3 22:39:56 10° W 22:43:05 43° N 22:46:14 10° ENE
Cosmos 1408 2.6 22:43:33 42° SSE 22:44:26 58° E 22:47:49 10° NNE
Terra 4.2 22:43:30 10° WSW 22:45:38 13° W 22:47:46 10° WNW
Cosmos 1825 3.3 22:46:54 26° ESE 22:47:51 30° E 22:51:11 10° NNE
ALOS 2 2.5 22:46:37 33° SSE 22:48:36 86° ENE 22:53:01 10° NNW
Cosmos 2366 rocket 4.1 22:42:40 10° N 22:48:58 70° ENE 22:52:47 25° SSE
Cosmos 1900 4.4 22:45:18 10° NW 22:50:31 81° NE 22:53:35 25° SE
SL-8 R/B 3.6 22:46:17 10° W 22:51:06 76° S 22:55:55 10° ESE
Cosmos 1726 Rocket 3.9 22:47:30 10° NNW 22:51:43 53° W 22:53:36 29° SSW
USA 267 3.8 22:45:54 10° ENE 22:52:19 60° NNW 22:58:43 10° W
Cosmos 1980 Rocket 2.4 22:49:49 10° NNW 22:55:32 69° ENE 22:59:14 22° SE
RESURS DK-1 2.8 22:53:48 10° NW 22:57:46 46° WSW 22:59:03 34° SSW
Cosmos 1697 Rocket 2.8 22:54:20 10° NNW 22:59:53 63° WSW 23:02:42 29° S
Cosmos 1331 Rocket 4.1 22:57:21 22° SSW 23:00:54 76° WNW 23:06:15 10° NNE
Cosmos 1452 Rocket 4.4 22:57:19 11° SW 23:02:10 46° WNW 23:07:15 10° NNE
Lacrosse 5 rocket 3.4 23:05:23 10° W 23:07:17 14° WSW 23:07:17 14° WSW
Cosmos 1892 2.5 23:06:34 41° SSW 23:07:47 86° W 23:11:34 10° N
ERS-2 2.3 23:05:02 10° NNE 23:08:35 55° ESE 23:09:26 42° SSE
ADEOS Rocket 3.4 23:05:35 26° S 23:09:54 78° WSW 23:17:30 10° NNW
USA 276 1.8 23:10:14 67° ESE 23:10:14 67° ESE 23:12:55 10° ENE
Cosmos 2084 Rocket 3.6 23:06:51 10° NW 23:10:43 60° NE 23:13:11 22° ESE
In-Cosmos 22 Rocket 4.2 23:08:21 29° S 23:11:18 74° E 23:16:50 10° NNE
Cosmos 2058 Rocket 3.5 23:10:40 10° NNW 23:14:57 53° W 23:16:43 32° SSW
Cosmos 1602 Rocket 4.2 23:15:24 30° SE 23:16:58 42° E 23:21:04 10° NNE
Cosmos 1959 Rocket 4.4 23:11:54 10° NNW 23:18:02 78° W 23:21:25 28° S
Cosmos 2181 Rocket 3.9 23:15:18 27° S 23:18:52 86° W 23:25:06 10° N
GP-B 4.5 23:16:44 10° NNW 23:20:38 31° WNW 23:23:05 18° SW
Cosmos 2278 3.9 23:17:49 10° NNW 23:23:34 69° ENE 23:27:31 20° SE
Cosmos 1302 Rocket 3.9 23:21:10 29° SSW 23:23:54 87° ESE 23:29:08 10° NNE
Cosmos 192 4.3 23:21:55 29° SSW 23:24:29 84° WNW 23:29:25 10° NNE
Cosmos 2322 Rocket 3.9 23:19:32 10° NNW 23:24:29 30° NE 23:29:26 10° ESE
Geosat FO 4.4 23:25:31 42° SE 23:26:34 84° ENE 23:30:08 10° NNW
USA 234 4.3 23:26:12 22° SSW 23:28:11 25° SW 23:33:27 10° WNW
ATLAS 2AS CENTAUR R/B 4.3 23:25:06 10° WNW 23:29:31 18° WSW 23:32:16 14° SW
Cosmos 1833 Rocket 3.3 23:26:16 15° SW 23:30:54 54° NW 23:36:26 10° NNE
CZ-2D R/B 4.4 23:33:39 10° ENE 23:35:20 11° E 23:37:01 10° ESE
Geosat 4.2 23:35:57 20° SE 23:39:26 70° ENE 23:44:28 10° NNW
BREEZE-M DEB (TANK) 4.1 23:36:53 10° W 23:40:35 84° S 23:56:37 10° ESE
Okean 1-7 Rocket 3.8 23:39:49 32° SSW 23:41:45 64° WNW 23:46:12 10° N
Cosmos 1626 Rocket 3.6 23:42:03 34° SSW 23:43:49 70° W 23:48:10 10° N
Cosmos 2082 Rocket 2.2 23:41:31 26° SSW 23:44:52 89° WNW 23:50:37 10° NNE
Cosmos 1821 Rocket 4.0 23:40:56 10° N 23:47:17 90° SSE 23:50:56 27° S
Cosmos 1869 3.9 23:46:10 10° NNW 23:49:49 42° W 23:50:55 33° SW
ATLAS 5 CENTAUR R/B 2.5 23:51:03 24° SE 23:51:30 25° ESE 23:54:51 10° ENE
Cosmos 1238 4.5 23:52:31 46° SE 23:53:00 53° E 23:55:58 10° NNE
Cosmos 1825 Rocket 4.1 23:53:55 29° SSE 23:55:43 46° E 23:59:51 10° NNE
